Home   Weather   Medina   Past weeks

Flag for Saudi Arabia Past Weather in Medina, Saudi Arabia — Yesterday and Last 2 Weeks

Now
82 °F

Clear.


Feels Like: 80 °F
Forecast: 60 / 78 °F
Wind: 8 mph from West

Location: Madinah

Current Time: Jan 19, 2017 at 8:10:30 pm

Latest Report: Jan 19, 2017 at 7:00 pm


Visibility: 10 mi

Pressure: 30.07 "Hg (28.07 "Hg at 606m altitude)

Humidity: 17%

Dew Point: 34 °F

Location of MedinaLocation

Past Weather in Medina — Graph

°F

Medina Temperature Yesterday

Maximum temperature yesterday: 86 °F (at 4:00 pm)
Minimum temperature yesterday: 59 °F (at 7:00 am)
Average temperature yesterday: 73 °F

High & Low Weather Summary for the Past Weeks

 TemperatureHumidityPressure
High86 °F (Jan 18, 4:00 pm)68% (Jan 16, 2:00 am)30.27 "Hg (Jan 16, 2:00 am)
Low54 °F (Jan 10, 5:00 am)9% (Jan 14, 3:00 pm)29.92 "Hg (Jan 15, 2:00 pm)
Average70 °F26%30.08 "Hg
* Reported Jan 4 7:00 pm — Jan 19 7:00 pm, Medina, Weather by CustomWeather, © 2017

Note: Actual official high and low records may vary slightly from our data, if they occured in-between our weather recording intervals... More about our weather records

Advertising

Medina Weather History for the Previous 24 Hours

Scroll right to see more
 ConditionsComfort  
Time TempWeatherWind HumidityBarometerVisibility
7:00 pm
Thu, Jan 19
82 °FClear.8 mph17%30.07 "Hg10 mi
6:00 pm84 °FClear.8 mph16%30.04 "Hg10 mi
5:00 pm86 °FSunny.6 mph14%30.04 "Hg10 mi
4:00 pm86 °FSunny.8 mph17%30.01 "Hg10 mi
3:00 pm84 °FSunny.12 mph15%30.01 "Hg10 mi
2:00 pm84 °FSunny.12 mph13%30.01 "Hg10 mi
1:00 pm82 °FSunny.14 mph14%30.04 "Hg10 mi
12:00 pm81 °FSunny.6 mph17%30.07 "Hg10 mi
11:00 am77 °FScattered clouds.2 mph22%30.12 "HgN/A
10:00 am72 °FScattered clouds.2 mph27%30.12 "HgN/A
9:00 am68 °FScattered clouds.2 mph28%30.09 "HgN/A
8:00 am64 °FScattered clouds.No wind32%30.12 "HgN/A
7:00 am63 °FClear.5 mph32%30.09 "Hg10 mi
6:00 am64 °FClear.No wind32%30.09 "Hg10 mi
5:00 am66 °FClear.No wind30%30.07 "Hg10 mi
4:00 am66 °FClear.No wind32%30.07 "Hg10 mi
3:00 am66 °FClear.6 mph32%30.07 "Hg10 mi
2:00 am68 °FClear.No wind28%30.12 "Hg10 mi
1:00 am68 °FClear.5 mph24%30.12 "Hg10 mi
12:00 am75 °FClear.7 mph21%30.12 "Hg10 mi
11:00 pm
Wed, Jan 18
77 °FClear.9 mph19%30.12 "Hg10 mi
10:00 pm79 °FClear.12 mph16%30.12 "Hg10 mi
9:00 pm81 °FClear.9 mph15%30.09 "Hg10 mi
8:00 pm81 °FClear.9 mph16%30.09 "Hg10 mi
Weather by CustomWeather, © 2017

See weather overviewHow to use our weather pages